This is the latest recevied weather packets stored in our database for station/object W5ITZ. If no packets are shown the sender has not sent any weather packets the latest 10 day(s).
| Time | Temp. | Humidity | Pressure | Rain* | Wind** | Luminosity | Snow |
|---|---|---|---|---|---|---|---|
| 1778203421 | 22.78° C | 82% | 1013.2 hPa | 0 mm | - | 0 W/m² | - |
| 1778203119 | 22.78° C | 81% | 1013.3 hPa | 0 mm | - | 0 W/m² | - |
| 1778202816 | 22.78° C | 81% | 1013.3 hPa | 0 mm | - | 0 W/m² | - |
| 1778202513 | 22.78° C | 81% | 1013.3 hPa | 0 mm | - | 1 W/m² | - |
| 1778202211 | 22.78° C | 81% | 1013.2 hPa | 0 mm | - | 2 W/m² | - |
| 1778201908 | 22.78° C | 82% | 1013.1 hPa | 0 mm | - | 2 W/m² | - |
| 1778201604 | 23.33° C | 82% | 1012.6 hPa | 0 mm | - | 7 W/m² | - |
| 1778201300 | 23.33° C | 82% | 1013 hPa | 0 mm | - | 12 W/m² | - |
| 1778200997 | 23.33° C | 81% | 1013 hPa | 0 mm | - | 12 W/m² | - |
| 1778200693 | 23.33° C | 81% | 1013.2 hPa | 0 mm | - | 12 W/m² | - |
| 1778200391 | 23.33° C | 81% | 1013 hPa | 0 mm | - | 13 W/m² | - |
| 1778200087 | 23.33° C | 81% | 1013.4 hPa | 0 mm | - | 9 W/m² | - |
| 1778199784 | 23.33° C | 81% | 1013.4 hPa | 0 mm | - | 8 W/m² | - |
| 1778199480 | 23.33° C | 81% | 1013.2 hPa | 0 mm | - | 9 W/m² | - |
| 1778199176 | 23.33° C | 80% | 1013.4 hPa | 0 mm | - | 11 W/m² | - |
| 1778198872 | 23.33° C | 79% | 1013.3 hPa | 0 mm | - | 10 W/m² | - |
| 1778198570 | 23.33° C | 79% | 1013.1 hPa | 0 mm | - | 12 W/m² | - |
| 1778198266 | 23.89° C | 79% | 1013.3 hPa | 0 mm | - | 14 W/m² | - |
| 1778197964 | 23.89° C | 78% | 1013 hPa | 0 mm | - | 21 W/m² | - |
| 1778197660 | 23.89° C | 78% | 1012.9 hPa | 0 mm | - | 22 W/m² | - |
| 1778197357 | 23.89° C | 77% | 1013 hPa | 0 mm | - | 24 W/m² | - |
| 1778197053 | 23.89° C | 77% | 1013.1 hPa | 0 mm | - | 22 W/m² | - |
| 1778196751 | 23.89° C | 77% | 1013.3 hPa | 0 mm | - | 25 W/m² | - |
| 1778196448 | 23.33° C | 77% | 1013.2 hPa | 0 mm | - | 31 W/m² | - |
| 1778196145 | 23.33° C | 77% | 1013.3 hPa | 0 mm | - | 42 W/m² | - |
* Rain latest hour (hover to see other rain measurements)
** Current wind speed in m/s (hover to see current wind gust speed)